| time (UTC) | temp C | wind direction | speed KPH | gust KPH | rain 1hr cm | rain 24hr cm | rain mn cm | humidity % | barometer mb |
| 20260504182156 | 23 | 258 | 4.8 | 17.7 | 0.00 | 0.00 | 0.00 | 32 | 1010.7 |
| 20260504181052 | 23 | 253 | 3.2 | 8.0 | 0.00 | 0.00 | 0.00 | 34 | 1010.7 |
| 20260504180052 | 22 | 296 | 3.2 | 8.0 | 0.00 | 0.00 | 0.00 | 33 | 1011.0 |
| 20260504175051 | 22 | 170 | 3.2 | 8.0 | 0.00 | 0.00 | 0.00 | 37 | 1011.0 |
| 20260504174020 | 22 | 276 | 4.8 | 9.7 | 0.00 | 0.00 | 0.00 | 34 | 1011.3 |
| 20260504173019 | 22 | 19 | 1.6 | 8.0 | 0.00 | 0.00 | 0.00 | 33 | 1011.3 |
| 20260504172019 | 21 | 266 | 3.2 | 8.0 | 0.00 | 0.00 | 0.00 | 34 | 1011.3 |
| 20260504171018 | 21 | 303 | 4.8 | 8.0 | 0.00 | 0.00 | 0.00 | 35 | 1011.6 |
| 20260504150941 | 18 | 84 | 1.6 | 6.4 | 0.00 | 0.00 | 0.00 | 44 | 1012.9 |
| 20260504140906 | 16 | 275 | 1.6 | 9.7 | 0.00 | 0.00 | 0.00 | 53 | 1013.2 |
| 20260504081406 | 7 | 265 | 0.0 | 0.0 | 0.00 | 0.00 | 0.00 | 68 | 1013.8 |
| 20260504080406 | 7 | 265 | 0.0 | 1.6 | 0.00 | 0.00 | 0.00 | 68 | 1013.8 |
| 20260504070402 | 8 | 287 | 0.0 | 0.0 | 0.00 | 0.00 | 0.00 | 59 | 1013.8 |
| 20260504060227 | 8 | 82 | 0.0 | 4.8 | 0.00 | 0.00 | 0.00 | 57 | 1013.8 |
| 20260504050223 | 9 | 58 | 0.0 | 0.0 | 0.00 | 0.00 | 0.00 | 55 | 1013.8 |
| 20260504045222 | 9 | 58 | 0.0 | 0.0 | 0.00 | 0.00 | 0.00 | 54 | 1013.4 |
| 20260504044222 | 9 | 59 | 1.6 | 1.6 | 0.00 | 0.00 | 0.00 | 54 | 1013.8 |
| 20260504043221 | 10 | 347 | 0.0 | 0.0 | 0.00 | 0.00 | 0.00 | 53 | 1013.4 |
| 20260504042221 | 10 | 348 | 0.0 | 1.6 | 0.00 | 0.00 | 0.00 | 53 | 1013.4 |
| 20260504041220 | 10 | 290 | 0.0 | 1.6 | 0.00 | 0.00 | 0.00 | 54 | 1013.1 |
| 20260504040148 | 10 | 290 | 0.0 | 3.2 | 0.00 | 0.00 | 0.00 | 53 | 1013.1 |
| 20260504035117 | 10 | 309 | 0.0 | 1.6 | 0.00 | 0.00 | 0.00 | 53 | 1013.1 |
| 20260504034116 | 10 | 229 | 0.0 | 0.0 | 0.00 | 0.00 | 0.00 | 53 | 1013.1 |
| 20260504033115 | 10 | 204 | 0.0 | 1.6 | 0.00 | 0.00 | 0.00 | 53 | 1013.0 |
| 20260504030905 | 10 | 329 | 3.2 | 3.2 | 0.00 | 0.00 | 0.00 | 52 | 1013.0 |
| 20260504025904 | 10 | 42 | 1.6 | 1.6 | 0.00 | 0.00 | 0.00 | 53 | 1013.1 |
| 20260504024904 | 10 | 325 | 0.0 | 3.2 | 0.00 | 0.00 | 0.00 | 53 | 1013.0 |
| 20260504023902 | 10 | 92 | 0.0 | 0.0 | 0.00 | 0.00 | 0.00 | 52 | 1013.0 |
| 20260504022902 | 10 | 180 | 0.0 | 0.0 | 0.00 | 0.00 | 0.00 | 52 | 1013.1 |
| 20260504021830 | 10 | 180 | 0.0 | 1.6 | 0.00 | 0.00 | 0.00 | 51 | 1013.1 |
| 20260504020830 | 10 | 218 | 1.6 | 1.6 | 0.00 | 0.00 | 0.00 | 51 | 1013.1 |
| 20260504015829 | 10 | 222 | 0.0 | 1.6 | 0.00 | 0.00 | 0.00 | 50 | 1012.7 |
| 20260504014828 | 10 | 221 | 0.0 | 0.0 | 0.00 | 0.00 | 0.00 | 51 | 1013.1 |
| 20260504013828 | 11 | 212 | 0.0 | 0.0 | 0.00 | 0.00 | 0.00 | 50 | 1012.7 |
| 20260504012827 | 11 | 212 | 0.0 | 0.0 | 0.00 | 0.00 | 0.00 | 50 | 1012.7 |
| 20260504011826 | 11 | 213 | 0.0 | 1.6 | 0.00 | 0.00 | 0.00 | 49 | 1012.8 |
| 20260504010825 | 11 | 279 | 0.0 | 3.2 | 0.00 | 0.00 | 0.00 | 49 | 1012.4 |
| 20260504005825 | 11 | 336 | 0.0 | 0.0 | 0.00 | 0.00 | 0.00 | 49 | 1012.4 |
| 20260504004825 | 11 | 336 | 0.0 | 0.0 | 0.00 | 0.00 | 0.00 | 48 | 1012.4 |
| 20260504003824 | 12 | 336 | 0.0 | 0.0 | 0.00 | 0.00 | 0.00 | 47 | 1012.1 |
| 20260504002823 | 12 | 336 | 0.0 | 0.0 | 0.00 | 0.00 | 0.00 | 45 | 1012.1 |
| 20260504001823 | 13 | 335 | 0.0 | 0.0 | 0.00 | 0.00 | 0.00 | 43 | 1012.2 |
| 20260504000822 | 13 | 335 | 0.0 | 0.0 | 0.00 | 0.00 | 0.00 | 42 | 1011.9 |
| 20260503235821 | 13 | 333 | 0.0 | 1.6 | 0.00 | 0.00 | 0.00 | 40 | 1011.7 |
| 20260503234821 | 14 | 333 | 0.0 | 1.6 | 0.00 | 0.00 | 0.00 | 39 | 1011.7 |
| 20260503233820 | 14 | 292 | 1.6 | 4.8 | 0.00 | 0.00 | 0.00 | 37 | 1011.7 |
| 20260503232820 | 15 | 307 | 3.2 | 6.4 | 0.00 | 0.00 | 0.00 | 36 | 1011.4 |
| 20260503231819 | 15 | 315 | 4.8 | 6.4 | 0.00 | 0.00 | 0.00 | 36 | 1011.4 |
| 20260503230748 | 15 | 283 | 3.2 | 8.0 | 0.00 | 0.00 | 0.00 | 34 | 1011.4 |
| 20260503225747 | 15 | 282 | 4.8 | 9.7 | 0.00 | 0.00 | 0.00 | 35 | 1011.4 |
| 20260503224644 | 15 | 289 | 3.2 | 8.0 | 0.00 | 0.00 | 0.00 | 34 | 1011.4 |
| 20260503223613 | 15 | 290 | 3.2 | 9.7 | 0.00 | 0.00 | 0.00 | 34 | 1011.4 |
| 20260503222612 | 16 | 306 | 3.2 | 8.0 | 0.00 | 0.00 | 0.00 | 32 | 1011.4 |
| 20260503221611 | 16 | 297 | 4.8 | 8.0 | 0.00 | 0.00 | 0.00 | 32 | 1011.4 |
| 20260503220611 | 16 | 285 | 6.4 | 9.7 | 0.00 | 0.00 | 0.00 | 32 | 1011.4 |
| 20260503215610 | 16 | 310 | 4.8 | 17.7 | 0.00 | 0.00 | 0.00 | 32 | 1011.1 |
| 20260503214609 | 16 | 278 | 4.8 | 16.1 | 0.00 | 0.00 | 0.00 | 31 | 1011.4 |
| 20260503213405 | 16 | 287 | 4.8 | 14.5 | 0.00 | 0.00 | 0.00 | 33 | 1011.1 |
| 20260503212404 | 16 | 287 | 4.8 | 11.3 | 0.00 | 0.00 | 0.00 | 33 | 1011.1 |
| 20260503211404 | 16 | 294 | 4.8 | 16.1 | 0.00 | 0.00 | 0.00 | 32 | 1011.1 |
| 20260503210403 | 16 | 283 | 6.4 | 14.5 | 0.00 | 0.00 | 0.00 | 32 | 1011.4 |
| 20260503205403 | 15 | 310 | 4.8 | 16.1 | 0.00 | 0.00 | 0.00 | 34 | 1011.4 |
| 20260503204402 | 15 | 282 | 6.4 | 12.9 | 0.00 | 0.00 | 0.00 | 35 | 1011.4 |
| 20260503203330 | 15 | 280 | 9.7 | 20.9 | 0.00 | 0.00 | 0.00 | 34 | 1011.7 |
| 20260503202330 | 15 | 312 | 6.4 | 14.5 | 0.00 | 0.00 | 0.00 | 32 | 1011.4 |
| 20260503201329 | 15 | 315 | 3.2 | 12.9 | 0.00 | 0.00 | 0.00 | 35 | 1011.4 |
| 20260503200226 | 15 | 350 | 3.2 | 11.3 | 0.00 | 0.00 | 0.00 | 37 | 1011.7 |
| 20260503195226 | 16 | 278 | 9.7 | 19.3 | 0.00 | 0.00 | 0.00 | 34 | 1011.7 |
| 20260503194052 | 15 | 304 | 4.8 | 19.3 | 0.00 | 0.00 | 0.00 | 36 | 1011.7 |
| 20260503193051 | 15 | 285 | 4.8 | 17.7 | 0.00 | 0.00 | 0.00 | 37 | 1011.7 |
| 20260503192050 | 15 | 286 | 4.8 | 16.1 | 0.00 | 0.00 | 0.00 | 35 | 1012.1 |
| 20260503191050 | 15 | 283 | 6.4 | 16.1 | 0.00 | 0.00 | 0.00 | 35 | 1011.7 |
| 20260503190049 | 15 | 278 | 6.4 | 19.3 | 0.00 | 0.00 | 0.00 | 34 | 1012.1 |
| 20260503185048 | 15 | 301 | 4.8 | 11.3 | 0.00 | 0.00 | 0.00 | 37 | 1012.1 |
| 20260503184017 | 14 | 278 | 6.4 | 16.1 | 0.00 | 0.00 | 0.00 | 36 | 1012.4 |